Flag for U.S.A. Weather past 2 weeks in Salt Lake City, Utah, U.S.A.

Now
87 °F

Scattered clouds.


Feels Like: 84 °F
Forecast: 67 / 87 °F
Wind: 28 mph from South

Location: Salt Lake City International Airport

Current Time: Sep 4, 2015 at 3:29:41 PM

Latest Report: Sep 4, 2015 at 2:53 PM


Visibility: 10 mi

Pressure: 29.58 "Hg (25.52 "Hg at 1312m altitude)

Humidity: 16%

Dew point: 35 °F

Location of Salt Lake CityLocation

Historic Weather in Salt Lake City — Graph

°F

Salt Lake City temperature yesterday

Maximum temperature yesterday: 89 °F (at 4:53 PM)
Minimum temperature yesterday: 74 °F (at 7:53 AM)
Average temperature yesterday: 82 °F

Past Weeks' High & Low Weather Summary

 TemperatureHumidityPressure
High97 °F (Aug 24, 2:53 PM)73% (Aug 27, 3:53 AM)30.09 "Hg (Aug 27, 3:53 AM)
Low61 °F (Aug 23, 3:53 AM)8% (Aug 21, 4:53 PM)29.55 "Hg (Sep 3, 6:53 PM)
Average80 °F28%29.83 "Hg
* Reported Aug 20 1:53 PM — Sep 4 1:53 PM, Salt Lake City, Weather by CustomWeather, © 2015

Note: Actual official high and low records may vary slightly from our data, if they occured in-between our weather recording intervals... More about our weather records

Advertising

Salt Lake City weather history for previous 24 hours

 ConditionsComfort  
Time TempWeatherWind HumidityBarometerVisibility
1:53 PM
Fri, Sep 4
86 °FScattered clouds.29 mph16%29.60 "Hg10 mi
12:53 PM85 °FScattered clouds.23 mph16%29.63 "Hg10 mi
11:53 AM84 °FScattered clouds.21 mph18%29.65 "Hg10 mi
10:53 AM81 °FScattered clouds.24 mph20%29.67 "Hg10 mi
9:53 AM79 °FPartly sunny.25 mph21%29.67 "Hg10 mi
8:53 AM76 °FPartly sunny.20 mph24%29.68 "Hg10 mi
7:53 AM73 °FPassing clouds.15 mph27%29.68 "Hg10 mi
6:53 AM72 °FPartly cloudy.16 mph27%29.66 "Hg10 mi
5:53 AM73 °FPassing clouds.17 mph25%29.64 "Hg10 mi
4:53 AM74 °FPassing clouds.16 mph25%29.63 "Hg10 mi
3:53 AM74 °FPassing clouds.14 mph25%29.63 "Hg10 mi
2:53 AM75 °FPassing clouds.15 mph24%29.61 "Hg10 mi
1:53 AM76 °FPassing clouds.18 mph23%29.60 "Hg10 mi
12:53 AM76 °FPassing clouds.15 mph24%29.60 "Hg10 mi
11:53 PM
Thu, Sep 3
77 °FPassing clouds.13 mph22%29.59 "Hg10 mi
10:53 PM79 °FPassing clouds.15 mph20%29.59 "Hg10 mi
9:53 PM83 °FPassing clouds.17 mph16%29.58 "Hg10 mi
8:53 PM83 °FScattered clouds.16 mph15%29.57 "Hg10 mi
7:53 PM85 °FScattered clouds.17 mph13%29.56 "Hg10 mi
6:53 PM88 °FBroken clouds.17 mph12%29.55 "Hg10 mi
5:53 PM89 °FBroken clouds.17 mph12%29.55 "Hg10 mi
4:53 PM89 °FScattered clouds.22 mph13%29.58 "Hg10 mi
3:53 PM88 °FScattered clouds.22 mph15%29.62 "Hg10 mi
Weather by CustomWeather, © 2015

See weather overviewHow to use our weather pages